sat.trackr.live / text

‹ back to catalog

STARLINK-4331

NORAD 53046 · 2022-077D

PAYLOAD ACTIVE UNKNOWN

§ Identity

Operator
Country
US
Launch date
2022-07-11
Launch site
AFWTR
Launch vehicle
Mass (kg)
RCS (m²)

Purposes: comms

External: N2YO · Heavens-Above · Gunter

§ Orbital elements

Epoch: 2026-05-25T01:13:14.920896Z

Period
95.64 min
Inclination
97.4485°
Eccentricity
0.0000542
Mean motion
15.05673628 rev/d
Perigee alt
549.1 km
Apogee alt
549.8 km
Semi-major
6,927.6 km
B*
-3.0039e-4
RAAN
326.2001°
Arg perigee
106.4446°
Mean anomaly
253.6841°
Rev number
21,248

§ Raw data

STARLINK-43311 53046U 22077D   26145.05086714 -.00004393  00000+0 -30039-3 0  99932 53046  97.4485 326.2001 0000542 106.4446 253.6841 15.05673628212486

JSON: /api/v1/satellites/53046 · /tle

For live sub-satellite position, see the globe view (requires WebGL).

§ Visibility from observer

Set your observer location to see the next 7 days of passes ≥ 10°. The values pass through the URL so the page stays shareable.

No JS? Fill the form by hand. The geolocation button needs JavaScript.